星链-5797 (STARLINK-5797 )

导读 | 豆包AI

STARLINK-5797是美国SpaceX公司星链星座中的一颗低轨互联网卫星,于2023年3月3日发射入轨。星链项目旨在为全球提供高速宽带互联网服务,尤其填补偏远地区的网络覆盖空白。作为大规模星座的组成部分,该卫星运行在近地轨道,通过星间互联实现全球信号覆盖,助力SpaceX打造全球卫星互联网基础设施,持续推动太空互联网部署进程。

基本信息
目录编号:
55784
目录名称:
STARLINK-5797
国际标识:
2023-028AV
轨道中心:
EARTH
卫星名称:
星链-5797
卫星全名:
星链-5797 (STARLINK-5797 )
卫星状态:
在轨 (已飞行1108 天)
发射日期:
2023-03-03 UTC
国别 :
美国 (US)
星等 :
--
轨道信息
数据来源 国际轨道数据
星历时间: 2026-03-15T08:38:32+0800
19小时前
查看轨道信息
半长轴: 6950.212km
偏心率: 0.0002866
轨道倾角: 70.002°
近地点辐角 276.395°
升交点赤经 191.078°
平近点角 83.688°
近地点: 570.083km
远地点: 574.067km
周期: 96.107分钟
每日圈数: 14.983239
详细信息
固有亮度:
5
最大亮度:
2.5
卫星平台:
Starlink v1.5
覆盖范围:
全球
运营商:
太空探索技术公司
运营商所在国:
美国
制造商(研发单位):
太空探索技术公司
制造商所在国:
美国
使用方式:
暂无
卫星简介
星链(Starlink)计划是由太空探索技术公司(SpaceX)提出的一个巨型低轨卫星互联网星座项目,计划在2019年至2024年间在太空搭建由约1.2万颗卫星组成的“星链”网络,其中1584颗将部署在地球上空550千米处的近地轨道,并从2020年开始工作。该卫星仍在工作。
2D轨道图
3D轨道图
轨道高度分析图
轨道倾角分析图
轨道综合分析图
查看轨道综合分析图